Regional Weather Roundup
Issued by NWS State College, PA

Home | Current Version | Previous Version | Text Only | Print | Product List | Glossary On
Versions: 1 2 3 4 5 6 7 8 9 10 11 12 13 14 15 16 17 18 19 20 21 22 23 24 25 26 27 28 29 30 31 32 33 34 35 36 37 38 39 40 41 42 43 44 45 46 47 48 49 50
000
ASUS41 KCTP 091903
RWRCTP

REGIONAL WEATHER ROUNDUP
NATIONAL WEATHER SERVICE STATE COLLEGE PA
200 PM EST TUE FEB 09 2016

Note: "fair" indicates few or no clouds below 12,000 feet with no
significant weather and/or obstructions to visibility.

* = STATION THAT DOES NOT REPORT PRECIPITATION /E.G. RAIN...SNOW...ETC/
    THUNDER OR FOG.

PAZ002>004-007>009-013>016-020>023-029>032-092000-
WESTERN PENNSYLVANIA

CITY           SKY/WX    TMP DP  RH WIND       PRES   REMARKS
ERIE           CLOUDY    33  26  75 W8        29.53F
MEADVILLE      CLOUDY    31  24  75 W14       29.51S
FRANKLIN*      CLOUDY    30  21  69 W9        29.52S
NEW CASTLE     CLOUDY    31  25  78 W10       29.56S
BEAVER COUNTY  CLOUDY    30  25  80 W9G16     29.55F
BUTLER*        CLOUDY    30  27  86 W8        29.57S
PITTSBURGH INT LGT SNOW  28  23  81 SW13      29.56S FOG
PITTSBURGH     LGT SNOW  29  23  78 SW14      29.55F VSB 1
INDIANA*       FOG       28  27  93 SW16G22   29.54S VSB 1/2
LATROBE        LGT SNOW  27  25  93 SW17      29.57F VSB 1   WCI  14
WASHINGTON CO* CLOUDY    27  21  80 SW14      29.59S VSB 1
$$

PAZ004>006-010>012-017>019-024>028-033>037-041-042-045-046-049>053-092000-
CENTRAL PENNSYLVANIA

CITY           SKY/WX    TMP DP  RH WIND       PRES   REMARKS
BRADFORD       CLOUDY    32  23  69 NW9       29.43F
DUBOIS         LGT SNOW  31  27  85 W8        29.45S FOG
CLEARFIELD     LGT SNOW  33  30  88 SW5       29.46S FOG
JOHNSTOWN      LGT SNOW  24  18  77 W14       29.46F WCI  12
ALTOONA        LGT SNOW  30  26  85 SW10      29.48F FOG
STATE COLLEGE  LGT SNOW  32  30  93 CALM      29.48F FOG
WILLIAMSPORT   LGT SNOW  35  30  82 E6        29.52F
SELINSGROVE    LGT SNOW  32  29  88 CALM      29.54S VSB 1
FT INDIANTOWN  SNOW      30  30 100 E3        29.53S VSB 1/2
CAPITAL CITY   SNOW      32  27  81 NE3       29.54F VSB 1/2
HARRISBURG     SNOW      31  28  89 CALM      29.54F VSB 1/2
YORK           LGT SNOW  32  29  88 N3        29.53S VSB 3/4
$$

PAZ038>040-043-044-047-048-054-055-060>062-067>071-092000-
EASTERN PENNSYLVANIA

CITY           SKY/WX    TMP DP  RH WIND       PRES   REMARKS
SCRANTON       CLOUDY    34  26  72 CALM      29.49F
MOUNT POCONO   CLOUDY    30  24  78 S5        29.45F
ALLENTOWN      CLOUDY    34  26  72 E5        29.54F
QUAKERTOWN*    CLOUDY    32  28  86 E3        29.55S
READING        LGT SNOW  33  29  85 E5        29.53S FOG
LANCASTER      SNOW      31  30  96 CALM      29.54R VSB 1/4
COATESVILLE    LGT SNOW  30  32 100 E5        29.53S
POTTSTOWN      LGT SNOW  31  28  89 E6        29.56S FOG
BLUE BELL        N/A     32  30  93 CALM      29.54S
DOYLESTOWN     FLURRIES  31  26  82 VRB3      29.54F
WILLOW GROVE   NOT AVBL
NORTH PHILA    LGT SNOW  35  29  78 E8        29.57F
PHILADELPHIA   LGT SNOW  37  29  72 NE8       29.56S
$$



USA.gov is the U.S. government's official web portal to all federal, state and local government web resources and services.